Regional Weather Roundup
Issued by NWS Memphis, TN

Home | Current Version | Previous Version | Text Only | Print | Product List | Glossary On
Versions: 1 2 3 4 5 6 7 8 9 10 11 12 13 14 15 16 17 18 19 20 21 22 23 24 25 26 27 28 29 30 31 32 33 34 35 36 37 38 39 40 41 42 43 44 45 46 47 48 49 50
000
ASUS44 KMEG 281400
RWRMEG
MEMPHIS CWA HOURLY WEATHER ROUNDUP
NATIONAL WEATHER SERVICE MEMPHIS TN
900 AM CDT TUE MAR 28 2017

...WEST TENNESSEE...

CITY           SKY/WX    TMP DP  RH WIND       PRES   REMARKS
MEMPHIS INTL   PTSUNNY   63  58  83 NE8       30.01R
NWS MEMPHIS      N/A     58 N/A N/A MISG        N/A
JACKSON        MOSUNNY   59  55  87 NE5       30.02R
DYERSBURG      CLOUDY    58  53  84 NE8       30.04R
PARIS          PTSUNNY   54  54 100 VRB5      30.03R


...EASTERN ARKANSAS...

CITY           SKY/WX    TMP DP  RH WIND       PRES   REMARKS
JONESBORO      CLOUDY    57  53  86 NE13      30.03R
WEST MEMPHIS   PTSUNNY   60  59  96 NE7       30.01R
BATESVILLE     CLOUDY    57  52  82 NE5       30.05R
NEWPORT        CLOUDY    58  55  90 MISG      30.04R
WALNUT RIDGE   PTSUNNY   57  52  82 NE10      30.05R
BLYTHEVILLE    CLOUDY    57  55  93 NE9       30.04R
NW BLYTHEVILLE CLOUDY    57  54  88 NE6       30.04R
SEARCY         CLOUDY    59  56  89 N9        30.04R
STUTTGART      SUNNY     61  48  63 NE10      30.01R
PINE BLUFF     MOSUNNY   60  55  83 N10       30.00R
MONTICELLO     SUNNY     65  58  78 NE8       29.98R


...NORTH MISSISSIPPI...

CITY           SKY/WX    TMP DP  RH WIND       PRES   REMARKS
TUPELO         PTSUNNY   64  59  83 N5        29.99R
OLIVE BRANCH   CLOUDY   N/A N/A N/A NE9       30.00R FOG
TUNICA         MOSUNNY   63  59  88 N9        30.00S FOG
GREENWOOD      CLOUDY    69  66  90 SW8       29.98R
COLUMBUS       CLOUDY    67  66  96 CALM      29.98R
STARKVILLE     CLOUDY    68  64  88 SW5       30.00R
GOLDEN TRIANGL CLOUDY    68  61  77 CALM      29.96R


...SOUTHEAST MISSOURI...

CITY           SKY/WX    TMP DP  RH WIND       PRES   REMARKS
KENNETT        CLOUDY    57  55  94 NE5       30.03R FOG
MALDEN         CLOUDY    57  52  82 N5        30.05R
WEST PLAINS    CLOUDY    54  51  90 NE7       30.05R
POPLAR BLUFF   CLOUDY    57  52  83 N8        30.04R
CAPE GIRARDEAU CLOUDY    55  50  83 N9        30.04R


...NORTHWEST ALABAMA...

CITY           SKY/WX    TMP DP  RH WIND       PRES   REMARKS
MUSCLE SHOALS  CLOUDY    61  59  93 CALM      30.01R


...MIDDLE TENNESSEE...

CITY           SKY/WX    TMP DP  RH WIND       PRES   REMARKS
NASHVILLE      PTSUNNY   60  54  80 NW6       30.01S
CLARKSVILLE    CLOUDY    57  54  89 W6        30.01R
COLUMBIA       CLOUDY   N/A N/A N/A N6        30.00R


...WESTERN KENTUCKY...

CITY           SKY/WX    TMP DP  RH WIND       PRES   REMARKS
PADUCAH        CLOUDY    57  51  80 N9        30.02R
FORT CAMPBELL  CLOUDY    56  56 100 W7        30.01R


...CENTRAL ARKANSAS...

CITY           SKY/WX    TMP DP  RH WIND       PRES   REMARKS


SKY/WX REPORTED AS FAIR MEANS FEW OR NO CLOUDS BELOW
12 THOUSAND FEET.




USA.gov is the U.S. government's official web portal to all federal, state and local government web resources and services.